{"data":{"norad_id":67674,"intl_designator":"2026-023A","name":"COSMOS 2600","alt_names":[],"object_type":"PAYLOAD","status":"ACTIVE","operator":null,"country":"CIS","launch_date":"2026-02-05","launch_site_code":"PLMSC","launch_vehicle":null,"mission":null,"orbit_class":"UNKNOWN","rcs_meters":null,"size_class":null,"mass_kg":null,"dimensions":null,"purposes":[],"wikipedia_slug":null,"has_3d_model":false,"image_url":null,"decayed_at":null,"tle_current":{"epoch":"2026-05-24T15:29:47.793120Z","epoch_age_seconds":116102,"freshness":"FRESH","line1":"1 67674U 26023A   26144.64569205  .00024576  00000+0  11665-3 0  9992","line2":"2 67674  96.6491 217.8073 0011854 181.3258 178.7984 15.82826367 17068","mean_motion":15.82826367,"eccentricity":0.0011854,"inclination_deg":96.6491,"raan_deg":217.8073,"arg_perigee_deg":181.3258,"mean_anomaly_deg":178.7984,"bstar":0.00011665,"rev_number":1706,"period_min":90.97649811895,"perigee_km":314.50928318315,"apogee_km":330.39503996741,"semimajor_km":6700.5891615753,"source":"CELESTRAK","updated_at":"2026-05-25T13:38:07.182919Z"}}}